Latest Weather Observations for Macquarie Island

IDT60801

Issued at 5:05 am EDT Sunday 26 October 2014 (issued every 30 minutes, with the page automatically refreshed every 10 minutes)

About weather observations | Map of weather stations | Latest weather observations for TAS | Other Formats
Station Details ID: 300004 Name: MACQUARIE ISLAND Lat: -54.50 Lon: 158.94 Height: 6.0 m
Data from the previous 72 hours. | See also: Recent months at Macquarie Island
Date/Time
EDT
Temp
°C
App
Temp
°C
Dew
Point
Rel
Hum
%
Delta-T
°C
Wind Press
QNH
hPa
Press
MSL
hPa
Rain
since 9 am
mm
Dir
 
Spd
km/h
Gust
km/h
Spd
kts
Gust
kts
26/05:00am 0.8 -8.9 -2.1 81 1.1 W 39 69 21 37 995.3 - 3.6
26/04:57am 0.7 -9.3 -1.8 83 0.9 W 41 69 22 37 995.1 - 3.6
26/04:53am 0.5 -8.8 -2.0 83 0.9 WSW 37 48 20 26 995.3 - 3.6
26/04:31am 0.1 -13.0 -1.8 87 0.7 W 57 80 31 43 995.4 - 3.6
26/04:30am 0.0 -13.1 -2.1 86 0.7 W 57 70 31 38 995.4 - 3.6
26/04:00am 0.4 -10.0 -1.7 86 0.8 W 43 63 23 34 994.8 - 3.2
26/03:49am 0.1 -12.4 -1.6 88 0.6 W 54 72 29 39 995.1 - 3.0
26/03:45am 0.0 -13.4 -1.4 90 0.5 W 59 72 32 39 995.0 - 2.8
26/03:31am 0.7 -8.9 -1.2 87 0.7 W 39 61 21 33 995.1 - 2.8
26/03:30am 0.9 -8.6 -1.0 87 0.7 W 39 50 21 27 994.9 - 2.8
26/03:01am 0.0 -10.9 -1.6 89 0.6 W 46 67 25 36 995.1 - 2.4
26/03:00am 0.0 -10.9 -1.6 89 0.6 W 46 63 25 34 995.1 995.4 2.4
26/02:57am 0.2 -10.3 -1.4 89 0.6 W 44 63 24 34 995.0 - 2.4
26/02:51am 0.4 -9.1 -1.0 90 0.5 W 39 48 21 26 994.7 - 2.4
26/02:30am -0.8 -13.9 -2.1 91 0.4 WSW 57 76 31 41 995.1 - 2.4
26/02:24am -0.2 -14.5 -2.3 86 0.7 WSW 63 82 34 44 995.1 - 2.2
26/02:20am 0.6 -14.8 -2.6 79 1.1 W 69 82 37 44 994.9 - 2.2
26/02:14am 1.8 -9.9 -1.8 77 1.3 W 50 72 27 39 994.2 - 2.2
26/02:00am 1.3 -10.4 -1.6 81 1.0 W 50 63 27 34 994.3 - 2.2
26/01:30am 1.0 -9.1 -2.7 76 1.3 W 41 69 22 37 994.3 - 2.2
26/01:19am 0.9 -10.8 -1.8 82 1.0 W 50 78 27 42 994.5 - 2.2
26/01:00am 0.9 -6.7 -2.0 81 1.1 W 28 48 15 26 994.0 - 2.2
26/12:53am 0.8 -6.8 -2.2 80 1.1 WSW 28 46 15 25 994.2 - 2.2
26/12:51am 0.8 -7.6 -2.4 79 1.1 SW 32 46 17 25 994.2 - 2.2
26/12:44am 1.0 -9.0 -1.9 81 1.0 W 41 70 22 38 994.0 - 2.2
26/12:43am 1.1 -9.3 -1.8 81 1.0 W 43 57 23 31 993.9 - 2.2
26/12:30am 1.2 -12.7 -2.4 77 1.3 W 61 80 33 43 993.9 - 2.2
26/12:00am 1.3 -10.9 -2.5 76 1.4 W 52 70 28 38 993.5 993.8 2.2
 
Date/Time
EDT
Temp
°C
App
Temp
°C
Dew
Point
Rel
Hum
%
Delta-T
°C
Wind Press
QNH
hPa
Press
MSL
hPa
Rain
since 9 am
mm
Dir
 
Spd
km/h
Gust
km/h
Spd
kts
Gust
kts
25/11:30pm 1.0 -9.8 -0.3 91 0.5 W 46 65 25 35 993.1 - 2.2
25/11:06pm 0.5 -6.9 -0.8 91 0.5 WSW 28 46 15 25 992.8 - 2.0
25/11:00pm 0.7 -6.7 -0.7 90 0.5 SW 28 43 15 23 992.7 - 2.0
25/10:41pm 1.0 -7.6 -0.1 92 0.4 W 35 80 19 43 992.0 - 1.8
25/10:38pm 1.0 -7.3 -0.1 92 0.4 W 33 52 18 28 991.7 - 1.6
25/10:30pm 1.2 -7.8 -0.1 91 0.5 W 37 46 20 25 991.5 - 1.2
25/10:00pm 1.7 -9.4 0.2 90 0.6 W 48 65 26 35 991.4 - 0.8
25/09:37pm 2.0 -9.4 0.5 90 0.6 W 50 69 27 37 991.1 - 0.8
25/09:30pm 1.8 -9.6 0.3 90 0.6 W 50 67 27 36 991.3 - 0.8
25/09:22pm 1.9 -9.9 0.7 92 0.4 W 52 70 28 38 991.4 - 0.8
25/09:19pm 1.7 -11.1 0.4 91 0.5 W 57 70 31 38 991.2 - 0.8
25/09:17pm 1.9 -7.8 0.6 91 0.5 N 41 61 22 33 991.2 - 0.6
25/09:02pm 1.8 -6.7 0.6 92 0.4 NNE 35 39 19 21 991.6 - 0.6
25/09:00pm 1.9 -7.0 0.7 92 0.5 NNW 37 43 20 23 991.6 991.9 0.6
25/08:55pm 1.7 -7.3 0.4 91 0.5 NW 37 43 20 23 991.7 - 0.4
25/08:53pm 1.9 -7.0 0.6 91 0.5 N 37 44 20 24 991.7 - 0.4
25/08:45pm 2.1 -5.8 0.8 91 0.5 NNW 32 39 17 21 991.8 - 0.4
25/08:42pm 1.9 -7.4 0.3 89 0.6 NNE 39 44 21 24 991.8 - 0.4
25/08:30pm 1.9 -6.3 0.4 90 0.6 NNW 33 39 18 21 992.0 - 0.4
25/08:10pm 1.9 -6.3 0.1 88 0.7 WNW 33 37 18 20 992.2 - 0.4
25/08:00pm 2.1 -6.9 0.0 86 0.8 NW 37 44 20 24 992.3 - 0.4
25/07:57pm 2.1 -8.1 -0.2 85 0.8 N 43 46 23 25 992.3 - 0.4
25/07:37pm 3.0 -6.9 -1.2 74 1.5 WNW 41 50 22 27 992.2 - 0.4
25/07:30pm 3.3 -6.2 -0.9 74 1.5 NNW 39 48 21 26 992.2 - 0.4
25/07:00pm 3.2 -6.0 -1.3 72 1.6 W 37 48 20 26 992.4 - 0.4
25/06:30pm 3.2 -7.2 -1.7 70 1.7 W 43 50 23 27 992.6 - 0.4
25/06:02pm 3.4 -6.9 -1.3 71 1.7 WNW 43 61 23 33 992.5 - 0.4
25/06:00pm 3.4 -6.5 -1.2 72 1.7 W 41 54 22 29 992.6 992.9 0.4
25/05:30pm 3.6 -6.8 -1.9 67 2.0 W 43 56 23 30 992.7 - 0.4
25/05:00pm 4.2 -6.3 -1.0 69 1.9 W 44 56 24 30 992.5 - 0.4
25/04:30pm 3.8 -8.0 -2.0 66 2.1 W 50 59 27 32 992.6 - 0.4
25/04:00pm 4.0 -8.1 -1.4 68 2.0 W 52 65 28 35 992.4 - 0.4
25/03:30pm 4.5 -8.4 -1.7 64 2.2 W 56 69 30 37 992.2 - 0.4
25/03:06pm 4.4 -8.4 -1.6 65 2.2 W 56 74 30 40 991.9 - 0.4
25/03:00pm 4.3 -8.7 -1.7 65 2.2 W 57 70 31 38 991.9 992.2 0.4
25/02:30pm 3.8 -9.7 -2.4 64 2.2 W 59 78 32 42 991.6 - 0.4
25/02:00pm 3.8 -9.5 -0.6 73 1.6 W 59 80 32 43 990.9 - 0.4
25/01:36pm 1.7 -11.3 -1.2 81 1.0 WSW 57 82 31 44 991.2 - 0.4
25/01:33pm 2.4 -14.2 -1.2 77 1.3 W 76 100 41 54 990.4 - 0.4
25/01:32pm 3.4 -8.1 -0.4 76 1.4 W 50 100 27 54 990.3 - 0.4
25/01:30pm 3.8 -6.8 0.8 81 1.1 W 46 61 25 33 990.5 - 0.4
25/01:00pm 3.4 -9.0 -1.0 73 1.6 W 54 69 29 37 990.5 - 0.2
25/12:38pm 2.7 -9.5 0.1 83 1.0 W 54 72 29 39 990.4 - 0.2
25/12:30pm 2.9 -10.3 0.1 82 1.0 W 59 72 32 39 990.3 - 0.2
25/12:00pm 3.6 -8.7 -0.6 74 1.6 W 54 72 29 39 989.7 990.0 0.2
25/11:30am 3.1 -9.2 -0.2 79 1.2 W 54 76 29 41 989.4 - 0.2
25/11:18am 3.0 -9.3 -0.5 78 1.3 W 54 74 29 40 989.5 - 0.2
25/11:00am 3.3 -9.0 -0.3 77 1.3 W 54 70 29 38 988.9 - 0.2
25/10:30am 3.5 -9.3 0.0 78 1.3 W 57 72 31 39 988.6 - 0.2
25/10:05am 3.0 -10.1 0.7 85 0.9 W 59 78 32 42 988.4 - 0.2
25/10:00am 3.4 -9.6 1.0 84 0.9 W 59 72 32 39 988.1 - 0.2
25/09:30am 3.3 -9.1 1.7 89 0.6 W 56 74 30 40 987.7 - 0.2
25/09:11am 3.5 -8.8 1.9 89 0.6 W 56 74 30 40 987.2 - 0.0
25/09:00am 3.7 -8.8 1.7 87 0.8 W 57 70 31 38 986.9 987.2 3.8
25/08:30am 4.0 -8.5 2.2 88 0.7 WSW 57 72 31 39 986.3 - 3.8
25/08:27am 4.1 -8.3 2.5 89 0.6 WSW 57 69 31 37 986.2 - 3.6
25/08:07am 4.8 -7.4 3.8 93 0.4 W 57 70 31 38 985.5 - 3.4
25/08:00am 5.3 -4.3 4.4 94 0.4 NW 44 52 24 28 985.1 - 3.4
25/07:53am 5.2 -4.2 4.3 94 0.4 NW 43 50 23 27 985.0 - 3.2
25/07:30am 5.4 -3.6 4.7 95 0.3 WNW 41 48 22 26 985.0 - 3.2
25/07:10am 5.8 -5.6 5.1 95 0.3 WNW 54 72 29 39 985.0 - 3.0
25/07:09am 5.9 -5.4 5.2 95 0.3 NNW 54 72 29 39 984.8 - 3.0
25/07:00am 6.1 -6.5 5.5 96 0.3 NNW 61 74 33 40 984.1 - 2.4
25/06:30am 5.9 -6.0 5.2 95 0.3 NNW 57 65 31 35 984.7 - 1.4
25/06:00am 5.8 -6.1 5.1 95 0.3 NNW 57 67 31 36 985.5 985.8 1.0
25/05:30am 5.8 -6.1 5.1 95 0.3 NNW 57 67 31 36 986.7 - 0.6
25/05:00am 5.8 -6.9 5.1 95 0.3 NNW 61 72 33 39 987.5 - 0.0
25/04:30am 5.8 -6.9 4.9 94 0.4 NNW 61 72 33 39 988.3 - 0.0
25/04:00am 5.7 -6.7 4.8 94 0.4 NNW 59 70 32 38 989.4 - 0.0
25/03:30am 5.7 -6.3 4.7 93 0.4 NNW 57 67 31 36 990.5 - 0.0
25/03:00am 5.7 -6.1 4.8 94 0.4 NNW 56 67 30 36 991.4 991.7 0.0
25/02:30am 5.8 -6.6 4.6 92 0.5 NNW 59 72 32 39 992.1 - 0.0
25/02:00am 5.8 -6.0 4.9 94 0.4 NNW 56 65 30 35 992.9 - 0.0
25/01:30am 5.7 -6.3 4.7 93 0.4 NNW 57 69 31 37 994.1 - 0.0
25/01:00am 5.9 -6.5 4.7 92 0.5 NNW 59 69 32 37 995.0 - 0.0
25/12:30am 5.8 -6.1 4.4 91 0.6 NNW 56 63 30 34 995.6 - 0.0
25/12:00am 5.8 -5.4 4.1 89 0.7 NNW 52 59 28 32 996.9 997.2 0.0
 
Date/Time
EDT
Temp
°C
App
Temp
°C
Dew
Point
Rel
Hum
%
Delta-T
°C
Wind Press
QNH
hPa
Press
MSL
hPa
Rain
since 9 am
mm
Dir
 
Spd
km/h
Gust
km/h
Spd
kts
Gust
kts
24/11:30pm 5.6 -4.5 3.9 89 0.7 NNW 46 56 25 30 998.1 - 0.0
24/11:00pm 5.6 -4.5 3.9 89 0.7 NNW 46 54 25 29 999.0 - 0.0
24/10:30pm 5.6 -4.5 3.9 89 0.7 NNW 46 54 25 29 999.8 - 0.0
24/10:00pm 5.5 -2.9 3.7 88 0.8 NNW 37 44 20 24 1000.7 - 0.0
24/09:30pm 5.5 -3.7 3.5 87 0.8 NNW 41 46 22 25 1001.1 - 0.0
24/09:00pm 5.6 -2.5 3.4 86 0.9 NNW 35 46 19 25 1001.6 1001.9 0.0
24/08:30pm 5.6 -3.1 3.9 89 0.7 NNW 39 54 21 29 1001.9 - 0.0
24/08:00pm 5.6 -3.1 4.2 91 0.6 NNW 39 50 21 27 1002.3 - 0.0
24/07:30pm 5.4 -2.1 3.6 88 0.8 NNW 32 39 17 21 1002.8 - 0.0
24/07:00pm 5.5 -3.7 3.7 88 0.8 N 41 50 22 27 1003.0 - 0.0
24/06:46pm 5.4 -3.4 3.6 88 0.8 N 39 43 21 23 1003.1 - 0.0
24/06:40pm 5.6 -3.2 3.6 87 0.8 NE 39 43 21 23 1003.2 - 0.0
24/06:30pm 5.7 -4.1 3.5 86 0.9 NNW 44 56 24 30 1003.2 - 0.0
24/06:00pm 5.8 -4.3 3.5 85 1.0 N 46 52 25 28 1003.5 1003.8 0.0
24/05:53pm 5.8 -5.1 3.5 85 1.0 N 50 57 27 31 1003.5 - 0.0
24/05:43pm 5.8 -4.3 3.5 85 1.0 NNW 46 54 25 29 1003.6 - 0.0
24/05:30pm 5.9 -4.6 3.4 84 1.0 N 48 56 26 30 1003.7 - 0.0
24/05:00pm 5.8 -4.8 3.3 84 1.0 N 48 54 26 29 1004.1 - 0.0
24/04:30pm 6.0 -4.9 3.5 84 1.0 N 50 59 27 32 1004.4 - 0.0
24/04:20pm 6.0 -4.9 3.3 83 1.1 N 50 56 27 30 1004.5 - 0.0
24/04:07pm 6.1 -4.8 3.4 83 1.1 NNE 50 56 27 30 1004.7 - 0.0
24/04:05pm 6.1 -4.8 3.4 83 1.1 NNW 50 57 27 31 1004.7 - 0.0
24/04:00pm 6.1 -4.8 3.6 84 1.1 NNE 50 59 27 32 1004.7 - 0.0
24/03:56pm 6.1 -4.8 3.6 84 1.1 NNE 50 57 27 31 1004.8 - 0.0
24/03:30pm 6.1 -4.8 3.8 85 1.0 N 50 59 27 32 1004.8 - 0.0
24/03:26pm 6.1 -4.7 3.9 86 0.9 N 50 56 27 30 1004.8 - 0.0
24/03:13pm 6.1 -4.7 4.3 88 0.8 NNW 50 59 27 32 1004.9 - 0.0
24/03:00pm 5.9 -4.4 4.5 91 0.6 N 48 56 26 30 1005.1 1005.4 0.0
24/02:54pm 6.0 -4.7 4.6 91 0.6 N 50 57 27 31 1005.1 - 0.0
24/02:41pm 6.2 -5.3 4.4 88 0.8 NW 54 76 29 41 1005.0 - 0.0
24/02:30pm 6.5 -4.7 4.2 85 1.0 NW 52 59 28 32 1005.4 - 0.0
24/02:23pm 6.5 -5.0 4.2 85 1.0 NW 54 59 29 32 1005.3 - 0.0
24/02:21pm 6.5 -4.3 4.2 85 1.0 N 50 59 27 32 1005.3 - 0.0
24/02:08pm 6.8 -3.5 4.5 85 1.0 NNW 48 56 26 30 1005.4 - 0.0
24/02:06pm 6.8 -3.2 4.5 85 1.0 NNE 46 56 25 30 1005.4 - 0.0
24/02:00pm 6.7 -4.0 4.4 85 1.0 NNW 50 61 27 33 1005.4 - 0.0
24/01:55pm 6.6 -4.2 4.3 85 1.0 NNW 50 57 27 31 1005.4 - 0.0
24/01:38pm 7.1 -2.8 4.8 85 1.0 N 46 52 25 28 1005.5 - 0.0
24/01:30pm 6.8 -4.3 4.3 84 1.1 NNW 52 61 28 33 1005.5 - 0.0
24/01:04pm 7.4 -3.0 4.4 81 1.3 N 48 56 26 30 1005.5 - 0.0
24/01:00pm 7.3 -3.4 4.4 82 1.3 NW 50 63 27 34 1005.5 - 0.0
24/12:48pm 7.3 -3.5 4.3 81 1.3 NW 50 59 27 32 1005.6 - 0.0
24/12:30pm 7.1 -4.1 3.9 80 1.4 NNW 52 59 28 32 1005.7 - 0.0
24/12:00pm 7.2 -3.6 4.2 81 1.3 NNW 50 59 27 32 1005.9 1006.2 0.0
24/11:30am 7.1 -3.7 3.9 80 1.4 NNW 50 59 27 32 1006.0 - 0.0
24/11:00am 6.9 -3.9 4.2 83 1.2 NNW 50 57 27 31 1006.4 - 0.0
24/10:30am 6.7 -3.7 4.2 84 1.1 NW 48 57 26 31 1006.7 - 0.0
24/10:00am 6.2 -4.2 4.0 86 0.9 NW 48 61 26 33 1006.9 - 0.0
24/09:30am 5.9 -4.6 3.7 86 0.9 NW 48 61 26 33 1007.1 - 0.0
24/09:20am 6.1 -4.7 3.9 86 0.9 NNW 50 59 27 32 1007.0 - 0.0
24/09:00am 6.0 -5.2 3.8 86 0.9 WNW 52 63 28 34 1007.1 1007.4 0.6
24/08:30am 5.5 -5.4 3.5 87 0.8 WNW 50 59 27 32 1007.3 - 0.6
24/08:00am 5.7 -4.8 3.5 86 0.9 WNW 48 57 26 31 1007.3 - 0.6
24/07:30am 5.4 -5.5 3.6 88 0.8 NW 50 59 27 32 1007.3 - 0.6
24/07:07am 5.2 -5.7 3.5 89 0.7 NW 50 59 27 32 1007.4 - 0.6
24/07:02am 5.2 -5.7 3.5 89 0.7 NNW 50 59 27 32 1007.4 - 0.6
24/07:00am 5.1 -5.8 3.6 90 0.6 NW 50 59 27 32 1007.4 - 0.6
24/06:30am 4.9 -5.6 3.6 91 0.5 WNW 48 57 26 31 1007.6 - 0.6
24/06:00am 4.8 -6.1 3.6 92 0.5 WNW 50 61 27 33 1007.7 1008.0 0.6
24/05:30am 4.7 -5.8 3.5 92 0.5 WNW 48 61 26 33 1007.7 - 0.6
24/05:00am 4.7 -6.2 3.5 92 0.5 WNW 50 59 27 32 1008.0 - 0.6
24/04:30am 4.7 -5.5 3.4 91 0.5 WNW 46 54 25 29 1007.8 - 0.6
24/04:00am 4.7 -5.5 3.4 91 0.5 WNW 46 56 25 30 1007.9 - 0.6
24/03:30am 4.7 -5.5 3.2 90 0.6 WNW 46 56 25 30 1008.1 - 0.6
24/03:00am 4.7 -5.5 3.2 90 0.6 WNW 46 56 25 30 1008.0 1008.3 0.6
24/02:30am 4.5 -4.4 2.8 89 0.7 WNW 39 48 21 26 1008.0 - 0.6
24/02:00am 4.5 -5.2 2.7 88 0.7 WNW 43 50 23 27 1008.2 - 0.6
24/01:30am 4.3 -5.5 2.3 87 0.8 WNW 43 52 23 28 1008.6 - 0.6
24/01:00am 4.1 -4.7 1.6 84 1.0 W 37 44 20 24 1008.8 - 0.6
24/12:30am 4.0 -4.5 1.2 82 1.1 W 35 46 19 25 1008.8 - 0.6
24/12:00am 3.9 -5.4 0.6 79 1.3 W 39 48 21 26 1008.9 1009.2 0.6
 
Date/Time
EDT
Temp
°C
App
Temp
°C
Dew
Point
Rel
Hum
%
Delta-T
°C
Wind Press
QNH
hPa
Press
MSL
hPa
Rain
since 9 am
mm
Dir
 
Spd
km/h
Gust
km/h
Spd
kts
Gust
kts
23/11:30pm 3.6 -5.9 -0.4 75 1.5 W 39 46 21 25 1009.0 - 0.6
23/11:00pm 3.3 -7.0 -1.3 72 1.7 W 43 57 23 31 1009.0 - 0.6
23/10:30pm 3.1 -8.3 -2.2 68 1.9 W 48 59 26 32 1008.8 - 0.6
23/10:00pm 3.0 -7.7 -2.7 66 2.0 W 44 65 24 35 1008.7 - 0.6
23/09:30pm 2.7 -8.1 -3.2 65 2.0 W 44 63 24 34 1008.1 - 0.6
23/09:02pm 2.8 -8.2 -1.9 71 1.7 W 46 65 25 35 1007.7 - 0.6
23/09:00pm 2.8 -7.8 -2.1 70 1.7 W 44 59 24 32 1007.6 1007.9 0.6
23/08:30pm 2.7 -9.5 -2.8 67 1.9 W 52 72 28 39 1007.1 - 0.6
23/08:00pm 2.8 -7.6 -2.1 70 1.7 W 43 70 23 38 1006.5 - 0.6
23/07:59pm 2.8 -6.5 -1.9 71 1.7 W 37 54 20 29 1006.9 - 0.6
23/07:30pm 2.5 -7.6 -2.8 68 1.8 WSW 41 72 22 39 1006.5 - 0.6
23/07:09pm 2.6 -4.7 -2.5 69 1.8 WSW 26 59 14 32 1005.8 - 0.6
23/07:05pm 2.6 -8.5 -2.7 68 1.8 SW 46 65 25 35 1005.8 - 0.6
23/07:00pm 2.5 -6.5 -2.6 69 1.8 W 35 59 19 32 1005.7 - 0.6
23/06:30pm 2.8 -5.6 -1.2 75 1.4 WSW 33 63 18 34 1004.9 - 0.6
23/06:00pm 3.0 -5.3 -1.5 72 1.6 WSW 32 56 17 30 1004.2 1004.5 0.6
23/05:30pm 2.9 -5.0 -1.3 74 1.5 WSW 30 57 16 31 1003.6 - 0.6
23/05:00pm 3.0 -5.4 -1.0 75 1.4 W 33 57 18 31 1003.0 - 0.6
23/04:30pm 3.0 -5.7 -0.6 77 1.3 WSW 35 87 19 47 1002.1 - 0.6
23/04:29pm 3.0 -5.7 -0.6 77 1.3 WSW 35 87 19 47 1002.3 - 0.6
23/04:00pm 3.4 -5.3 -0.2 77 1.3 WSW 35 59 19 32 1001.3 - 0.6
23/03:30pm 3.3 -5.0 -0.5 76 1.4 SW 33 63 18 34 1000.6 - 0.6
23/03:00pm 3.0 -6.4 -0.3 79 1.2 SW 39 85 21 46 999.8 1000.1 0.6
23/02:55pm 2.9 -6.9 -0.2 80 1.1 SW 41 85 22 46 999.7 - 0.6
23/02:54pm 2.9 -6.6 -0.4 79 1.2 SW 39 59 21 32 999.6 - 0.6
23/02:30pm 3.3 -5.8 -0.3 77 1.3 W 37 70 20 38 998.7 - 0.6
23/02:26pm 3.2 -5.1 -0.6 76 1.4 W 33 57 18 31 998.7 - 0.6
23/02:25pm 3.2 -5.5 -0.6 76 1.4 W 35 50 19 27 998.8 - 0.6
23/02:17pm 3.1 -7.1 -0.5 77 1.3 SW 43 74 23 40 998.6 - 0.6
23/02:00pm 3.1 -8.4 -0.2 79 1.2 W 50 76 27 41 997.7 - 0.6
23/01:30pm 3.5 -7.6 0.2 79 1.2 W 48 80 26 43 997.0 - 0.6
23/01:00pm 3.2 -7.2 -0.3 78 1.3 W 44 76 24 41 996.4 - 0.6
23/12:55pm 3.3 -5.5 -0.9 74 1.5 WSW 35 63 19 34 996.7 - 0.6
23/12:30pm 3.0 -9.6 -0.1 80 1.1 W 56 87 30 47 996.0 - 0.6
23/12:22pm 3.3 -10.3 0.0 79 1.2 W 61 87 33 47 995.7 - 0.6
23/12:17pm 3.4 -6.0 -0.2 77 1.3 W 39 83 21 45 995.6 - 0.6
23/12:01pm 2.7 -6.0 -0.6 79 1.2 WSW 35 59 19 32 995.7 - 0.6
23/12:00pm 2.6 -5.6 -1.0 77 1.3 WSW 32 41 17 22 996.0 996.3 0.6
23/11:30am 3.4 -8.0 0.8 83 1.0 W 50 76 27 41 995.1 - 0.6
23/11:00am 3.6 -9.1 -0.2 76 1.4 W 56 80 30 43 994.6 - 0.4
23/10:30am 3.2 -6.5 0.8 84 0.9 W 41 74 22 40 994.1 - 0.4
23/10:00am 3.0 -6.6 1.2 88 0.7 W 41 72 22 39 994.0 - 0.4
23/09:30am 3.4 -5.0 1.6 88 0.7 W 35 61 19 33 993.2 - 0.2
23/09:00am 3.9 -5.3 1.1 82 1.1 W 39 63 21 34 992.7 993.0 8.2
23/08:31am 3.5 -5.0 0.9 83 1.0 W 35 54 19 29 992.3 - 8.2
23/08:30am 3.6 -4.5 1.0 83 1.0 W 33 44 18 24 992.3 - 8.2
23/08:00am 3.2 -4.0 0.6 83 1.0 WSW 28 54 15 29 991.8 - 8.2
23/07:30am 2.8 -4.4 0.4 84 0.9 WSW 28 52 15 28 991.3 - 8.2
23/07:00am 2.6 -5.4 0.2 84 0.9 SW 32 50 17 27 990.8 - 8.2
23/06:30am 2.4 -5.8 0.5 87 0.7 SW 33 52 18 28 990.1 - 8.2
23/06:00am 2.2 -6.8 0.4 88 0.7 WSW 37 65 20 35 989.3 989.6 8.2
23/05:30am 2.4 -6.6 -0.2 83 1.0 WSW 37 63 20 34 988.6 - 8.2

Other Formats:

Comma delimited format used in spreadsheet applications
http://www.bom.gov.au/fwo/IDT60801/IDT60801.94998.axf

JavaScript Object Notation format (JSON) in row-major order
http://www.bom.gov.au/fwo/IDT60801/IDT60801.94998.json